owner,sensor,date,latitude,longitude,vertical_datum,sea_water_temperature,qcFlag 
TABS,ioos:station:wmo:42048:1,2009-01-23T14:00:00Z,27.9396,-96.8429,-2.0,15.4,11111222 
TABS,ioos:station:wmo:42048:1,2009-01-23T14:30:00Z,27.9396,-96.8429,-2.0,15.35,11111222 
TABS,ioos:station:wmo:42048:1,2009-01-23T15:00:00Z,27.9396,-96.8429,-2.0,15.34,11111222 
TABS,ioos:station:wmo:42048:1,2009-01-23T15:30:00Z,27.9396,-96.8429,-2.0,15.37,11111222 
TABS,ioos:station:wmo:42048:1,2009-01-23T16:00:00Z,27.9396,-96.8429,-2.0,15.42,11111222 
TABS,ioos:station:wmo:42048:1,2009-01-23T16:30:00Z,27.9396,-96.8429,-2.0,15.46,11111222 
TABS,ioos:station:wmo:42048:1,2009-01-23T17:00:00Z,27.9396,-96.8429,-2.0,15.51,11111222 
TABS,ioos:station:wmo:42048:1,2009-01-23T17:30:00Z,27.9396,-96.8429,-2.0,15.55,11111222 
TABS,ioos:station:wmo:42048:1,2009-01-23T18:00:00Z,27.9396,-96.8429,-2.0,15.59,11111222 
TABS,ioos:station:wmo:42048:1,2009-01-23T18:30:00Z,27.9396,-96.8429,-2.0,15.67,11111222 
TABS,ioos:station:wmo:42048:1,2009-01-23T19:00:00Z,27.9396,-96.8429,-2.0,15.72,11111222 
TABS,ioos:station:wmo:42048:1,2009-01-23T19:30:00Z,27.9396,-96.8429,-2.0,15.7,11111222 
TABS,ioos:station:wmo:42048:1,2009-01-23T20:00:00Z,27.9396,-96.8429,-2.0,15.74,11111222 
TABS,ioos:station:wmo:42048:1,2009-01-23T20:30:00Z,27.9396,-96.8429,-2.0,15.79,11111222 
TABS,ioos:station:wmo:42048:1,2009-01-23T21:00:00Z,27.9396,-96.8429,-2.0,15.88,11111222 
TABS,ioos:station:wmo:42048:1,2009-01-23T21:30:00Z,27.9396,-96.8429,-2.0,15.89,11111222 
TABS,ioos:station:wmo:42048:1,2009-01-23T22:00:00Z,27.9396,-96.8429,-2.0,15.88,11111222 
TABS,ioos:station:wmo:42048:1,2009-01-23T22:30:00Z,27.9396,-96.8429,-2.0,15.88,11111222 
TABS,ioos:station:wmo:42048:1,2009-01-23T23:00:00Z,27.9396,-96.8429,-2.0,15.85,11111222 
TABS,ioos:station:wmo:42048:1,2009-01-23T23:30:00Z,27.9396,-96.8429,-2.0,15.85,11111222 
TABS,ioos:station:wmo:42048:1,2009-01-24T00:00:00Z,27.9396,-96.8429,-2.0,15.81,11111222 
TABS,ioos:station:wmo:42048:1,2009-01-24T00:30:00Z,27.9396,-96.8429,-2.0,15.77,11111222 
TABS,ioos:station:wmo:42048:1,2009-01-24T01:00:00Z,27.9396,-96.8429,-2.0,15.76,11111222 
TABS,ioos:station:wmo:42048:1,2009-01-24T01:30:00Z,27.9396,-96.8429,-2.0,15.7,11111222 
TABS,ioos:station:wmo:42048:1,2009-01-24T02:00:00Z,27.9396,-96.8429,-2.0,15.7,11111222 
TABS,ioos:station:wmo:42048:1,2009-01-24T02:30:00Z,27.9396,-96.8429,-2.0,15.66,11111222 
TABS,ioos:station:wmo:42048:1,2009-01-24T03:00:00Z,27.9396,-96.8429,-2.0,15.66,11111222 
TABS,ioos:station:wmo:42048:1,2009-01-24T03:30:00Z,27.9396,-96.8429,-2.0,15.65,11111222 
TABS,ioos:station:wmo:42048:1,2009-01-24T04:00:00Z,27.9396,-96.8429,-2.0,15.63,11111222 
TABS,ioos:station:wmo:42048:1,2009-01-24T04:30:00Z,27.9396,-96.8429,-2.0,15.6,11111222 
TABS,ioos:station:wmo:42048:1,2009-01-24T05:00:00Z,27.9396,-96.8429,-2.0,15.63,11111222 
TABS,ioos:station:wmo:42048:1,2009-01-24T05:30:00Z,27.9396,-96.8429,-2.0,15.64,11111222 
TABS,ioos:station:wmo:42048:1,2009-01-24T06:00:00Z,27.9396,-96.8429,-2.0,15.66,11111222 
TABS,ioos:station:wmo:42048:1,2009-01-24T06:30:00Z,27.9396,-96.8429,-2.0,15.68,11111222 
TABS,ioos:station:wmo:42048:1,2009-01-24T07:00:00Z,27.9396,-96.8429,-2.0,15.69,11111222 
TABS,ioos:station:wmo:42048:1,2009-01-24T07:30:00Z,27.9396,-96.8429,-2.0,15.69,11111222 
TABS,ioos:station:wmo:42048:1,2009-01-24T08:00:00Z,27.9396,-96.8429,-2.0,15.67,11111222 
TABS,ioos:station:wmo:42048:1,2009-01-24T08:30:00Z,27.9396,-96.8429,-2.0,15.67,11111222 
TABS,ioos:station:wmo:42048:1,2009-01-24T09:00:00Z,27.9396,-96.8429,-2.0,15.68,11111222 
TABS,ioos:station:wmo:42048:1,2009-01-24T09:30:00Z,27.9396,-96.8429,-2.0,15.69,11111222 
TABS,ioos:station:wmo:42048:1,2009-01-24T10:00:00Z,27.9396,-96.8429,-2.0,15.7,11111222 
TABS,ioos:station:wmo:42048:1,2009-01-24T10:30:00Z,27.9396,-96.8429,-2.0,15.73,11111222 
TABS,ioos:station:wmo:42048:1,2009-01-24T11:00:00Z,27.9396,-96.8429,-2.0,15.75,11111222 
TABS,ioos:station:wmo:42048:1,2009-01-24T11:30:00Z,27.9396,-96.8429,-2.0,15.81,11111222 
TABS,ioos:station:wmo:42048:1,2009-01-24T12:00:00Z,27.9396,-96.8429,-2.0,15.83,11111222 
TABS,ioos:station:wmo:42048:1,2009-01-24T12:30:00Z,27.9396,-96.8429,-2.0,15.84,11111222 
TABS,ioos:station:wmo:42048:1,2009-01-24T13:00:00Z,27.9396,-96.8429,-2.0,15.83,11111222 
TABS,ioos:station:wmo:42048:1,2009-01-24T13:30:00Z,27.9396,-96.8429,-2.0,15.85,11111222 
TABS,ioos:station:wmo:42048:1,2009-01-24T14:00:00Z,27.9396,-96.8429,-2.0,15.89,11111222 
TABS,ioos:station:wmo:42048:1,2009-01-24T14:30:00Z,27.9396,-96.8429,-2.0,15.92,11111222 
TABS,ioos:station:wmo:42048:1,2009-01-24T15:00:00Z,27.9396,-96.8429,-2.0,15.99,11111222 
TABS,ioos:station:wmo:42048:1,2009-01-24T15:30:00Z,27.9396,-96.8429,-2.0,16.05,11111222 
TABS,ioos:station:wmo:42048:1,2009-01-24T16:00:00Z,27.9396,-96.8429,-2.0,16.09,11111222 
TABS,ioos:station:wmo:42048:1,2009-01-24T16:30:00Z,27.9396,-96.8429,-2.0,16.15,11111222 
TABS,ioos:station:wmo:42048:1,2009-01-24T17:00:00Z,27.9396,-96.8429,-2.0,16.2,11111222 
TABS,ioos:station:wmo:42048:1,2009-01-24T17:30:00Z,27.9396,-96.8429,-2.0,16.3,11111222 
TABS,ioos:station:wmo:42048:1,2009-01-24T18:00:00Z,27.9396,-96.8429,-2.0,16.38,11111222 
TABS,ioos:station:wmo:42048:1,2009-01-24T18:30:00Z,27.9396,-96.8429,-2.0,16.45,11111222 
TABS,ioos:station:wmo:42048:1,2009-01-24T19:00:00Z,27.9396,-96.8429,-2.0,16.49,11111222 
TABS,ioos:station:wmo:42048:1,2009-01-24T19:30:00Z,27.9396,-96.8429,-2.0,16.5,11111222 
TABS,ioos:station:wmo:42048:1,2009-01-24T20:00:00Z,27.9396,-96.8429,-2.0,16.52,11111222 
TABS,ioos:station:wmo:42048:1,2009-01-24T20:30:00Z,27.9396,-96.8429,-2.0,16.51,11111222 
TABS,ioos:station:wmo:42048:1,2009-01-24T21:00:00Z,27.9396,-96.8429,-2.0,16.5,11111222 
TABS,ioos:station:wmo:42048:1,2009-01-24T21:30:00Z,27.9396,-96.8429,-2.0,16.49,11111222 
TABS,ioos:station:wmo:42048:1,2009-01-24T22:00:00Z,27.9396,-96.8429,-2.0,16.5,11111222 
TABS,ioos:station:wmo:42048:1,2009-01-24T22:30:00Z,27.9396,-96.8429,-2.0,16.53,11111222 
TABS,ioos:station:wmo:42048:1,2009-01-24T23:00:00Z,27.9396,-96.8429,-2.0,16.49,11111222 
TABS,ioos:station:wmo:42048:1,2009-01-24T23:30:00Z,27.9396,-96.8429,-2.0,16.44,11111222 
TABS,ioos:station:wmo:42048:1,2009-01-25T00:00:00Z,27.9396,-96.8429,-2.0,16.41,11111222 
TABS,ioos:station:wmo:42048:1,2009-01-25T00:30:00Z,27.9396,-96.8429,-2.0,16.37,11111222 
TABS,ioos:station:wmo:42048:1,2009-01-25T01:00:00Z,27.9396,-96.8429,-2.0,16.32,11111222 
TABS,ioos:station:wmo:42048:1,2009-01-25T01:30:00Z,27.9396,-96.8429,-2.0,16.26,11111222 
TABS,ioos:station:wmo:42048:1,2009-01-25T02:00:00Z,27.9396,-96.8429,-2.0,16.26,11111222 
TABS,ioos:station:wmo:42048:1,2009-01-25T02:30:00Z,27.9396,-96.8429,-2.0,16.3,11111222 
TABS,ioos:station:wmo:42048:1,2009-01-25T03:00:00Z,27.9396,-96.8429,-2.0,16.26,11111222 
TABS,ioos:station:wmo:42048:1,2009-01-25T03:30:00Z,27.9396,-96.8429,-2.0,16.27,11111222 
TABS,ioos:station:wmo:42048:1,2009-01-25T04:00:00Z,27.9396,-96.8429,-2.0,16.23,11111222 
TABS,ioos:station:wmo:42048:1,2009-01-25T04:30:00Z,27.9396,-96.8429,-2.0,16.23,11111222 
TABS,ioos:station:wmo:42048:1,2009-01-25T05:00:00Z,27.9396,-96.8429,-2.0,16.21,11111222 
TABS,ioos:station:wmo:42048:1,2009-01-25T05:30:00Z,27.9396,-96.8429,-2.0,16.22,11111222 
TABS,ioos:station:wmo:42048:1,2009-01-25T06:00:00Z,27.9396,-96.8429,-2.0,16.22,11111222 
TABS,ioos:station:wmo:42048:1,2009-01-25T06:30:00Z,27.9396,-96.8429,-2.0,16.23,11111222 
TABS,ioos:station:wmo:42048:1,2009-01-25T07:00:00Z,27.9396,-96.8429,-2.0,16.27,11111222 
TABS,ioos:station:wmo:42048:1,2009-01-25T07:30:00Z,27.9396,-96.8429,-2.0,16.2,11111222 
TABS,ioos:station:wmo:42048:1,2009-01-25T08:00:00Z,27.9396,-96.8429,-2.0,16.19,11111222 
TABS,ioos:station:wmo:42048:1,2009-01-25T08:30:00Z,27.9396,-96.8429,-2.0,16.19,11111222 
TABS,ioos:station:wmo:42048:1,2009-01-25T09:00:00Z,27.9396,-96.8429,-2.0,16.17,11111222 
TABS,ioos:station:wmo:42048:1,2009-01-25T09:30:00Z,27.9396,-96.8429,-2.0,16.22,11111222 
TABS,ioos:station:wmo:42048:1,2009-01-25T10:00:00Z,27.9396,-96.8429,-2.0,16.24,11111222 
TABS,ioos:station:wmo:42048:1,2009-01-25T10:30:00Z,27.9396,-96.8429,-2.0,16.28,11111222 
TABS,ioos:station:wmo:42048:1,2009-01-25T11:00:00Z,27.9396,-96.8429,-2.0,16.37,11111222 
TABS,ioos:station:wmo:42048:1,2009-01-25T11:30:00Z,27.9396,-96.8429,-2.0,16.42,11111222 
TABS,ioos:station:wmo:42048:1,2009-01-25T12:00:00Z,27.9396,-96.8429,-2.0,16.42,11111222 
TABS,ioos:station:wmo:42048:1,2009-01-25T12:30:00Z,27.9396,-96.8429,-2.0,16.46,11111222 
TABS,ioos:station:wmo:42048:1,2009-01-25T13:00:00Z,27.9396,-96.8429,-2.0,16.5,11111222 
TABS,ioos:station:wmo:42048:1,2009-01-25T13:30:00Z,27.9396,-96.8429,-2.0,16.61,11111222 
TABS,ioos:station:wmo:42048:1,2009-01-25T14:00:00Z,27.9396,-96.8429,-2.0,16.63,11111222 
TABS,ioos:station:wmo:42048:1,2009-01-25T14:30:00Z,27.9396,-96.8429,-2.0,16.32,11111222 
TABS,ioos:station:wmo:42048:1,2009-01-25T15:00:00Z,27.9396,-96.8429,-2.0,16.09,11111222 
TABS,ioos:station:wmo:42048:1,2009-01-25T15:30:00Z,27.9396,-96.8429,-2.0,16.02,11111222 
TABS,ioos:station:wmo:42048:1,2009-01-25T16:00:00Z,27.9396,-96.8429,-2.0,15.98,11111222 
TABS,ioos:station:wmo:42048:1,2009-01-25T16:30:00Z,27.9396,-96.8429,-2.0,15.97,11111222 
TABS,ioos:station:wmo:42048:1,2009-01-25T17:00:00Z,27.9396,-96.8429,-2.0,15.91,11111222 
TABS,ioos:station:wmo:42048:1,2009-01-25T17:30:00Z,27.9396,-96.8429,-2.0,15.85,11111222 
TABS,ioos:station:wmo:42048:1,2009-01-25T18:00:00Z,27.9396,-96.8429,-2.0,15.82,11111222 
TABS,ioos:station:wmo:42048:1,2009-01-25T18:30:00Z,27.9396,-96.8429,-2.0,15.81,11111222 
TABS,ioos:station:wmo:42048:1,2009-01-25T19:00:00Z,27.9396,-96.8429,-2.0,15.83,11111222 
TABS,ioos:station:wmo:42048:1,2009-01-25T19:30:00Z,27.9396,-96.8429,-2.0,15.84,11111222 
TABS,ioos:station:wmo:42048:1,2009-01-25T20:00:00Z,27.9396,-96.8429,-2.0,15.8,11111222 
TABS,ioos:station:wmo:42048:1,2009-01-25T20:30:00Z,27.9396,-96.8429,-2.0,15.81,11111222 
TABS,ioos:station:wmo:42048:1,2009-01-25T21:00:00Z,27.9396,-96.8429,-2.0,15.79,11111222 
TABS,ioos:station:wmo:42048:1,2009-01-25T21:30:00Z,27.9396,-96.8429,-2.0,15.8,11111222 
TABS,ioos:station:wmo:42048:1,2009-01-25T22:00:00Z,27.9396,-96.8429,-2.0,15.83,11111222 
TABS,ioos:station:wmo:42048:1,2009-01-25T22:30:00Z,27.9396,-96.8429,-2.0,15.85,11111222 
TABS,ioos:station:wmo:42048:1,2009-01-25T23:00:00Z,27.9396,-96.8429,-2.0,15.87,11111222 
TABS,ioos:station:wmo:42048:1,2009-01-25T23:30:00Z,27.9396,-96.8429,-2.0,15.89,11111222 
TABS,ioos:station:wmo:42048:1,2009-01-26T00:00:00Z,27.9396,-96.8429,-2.0,15.88,11111222 
TABS,ioos:station:wmo:42048:1,2009-01-26T00:30:00Z,27.9396,-96.8429,-2.0,15.9,11111222 
TABS,ioos:station:wmo:42048:1,2009-01-26T01:00:00Z,27.9396,-96.8429,-2.0,15.9,11111222 
TABS,ioos:station:wmo:42048:1,2009-01-26T01:30:00Z,27.9396,-96.8429,-2.0,15.89,11111222 
TABS,ioos:station:wmo:42048:1,2009-01-26T02:00:00Z,27.9396,-96.8429,-2.0,15.89,11111222 
TABS,ioos:station:wmo:42048:1,2009-01-26T02:30:00Z,27.9396,-96.8429,-2.0,15.87,11111222 
TABS,ioos:station:wmo:42048:1,2009-01-26T03:00:00Z,27.9396,-96.8429,-2.0,15.85,11111222 
TABS,ioos:station:wmo:42048:1,2009-01-26T03:30:00Z,27.9396,-96.8429,-2.0,15.87,11111222 
TABS,ioos:station:wmo:42048:1,2009-01-26T04:00:00Z,27.9396,-96.8429,-2.0,15.85,11111222 
TABS,ioos:station:wmo:42048:1,2009-01-26T04:30:00Z,27.9396,-96.8429,-2.0,15.89,11111222 
TABS,ioos:station:wmo:42048:1,2009-01-26T05:00:00Z,27.9396,-96.8429,-2.0,15.89,11111222 
TABS,ioos:station:wmo:42048:1,2009-01-26T05:30:00Z,27.9396,-96.8429,-2.0,15.9,11111222 
TABS,ioos:station:wmo:42048:1,2009-01-26T06:00:00Z,27.9396,-96.8429,-2.0,15.9,11111222 
TABS,ioos:station:wmo:42048:1,2009-01-26T06:30:00Z,27.9396,-96.8429,-2.0,15.9,11111222 
TABS,ioos:station:wmo:42048:1,2009-01-26T07:00:00Z,27.9396,-96.8429,-2.0,15.9,11111222 
TABS,ioos:station:wmo:42048:1,2009-01-26T07:30:00Z,27.9396,-96.8429,-2.0,15.89,11111222 
TABS,ioos:station:wmo:42048:1,2009-01-26T08:00:00Z,27.9396,-96.8429,-2.0,15.88,11111222 
TABS,ioos:station:wmo:42048:1,2009-01-26T08:30:00Z,27.9396,-96.8429,-2.0,15.88,11111222 
TABS,ioos:station:wmo:42048:1,2009-01-26T09:00:00Z,27.9396,-96.8429,-2.0,15.87,11111222 
TABS,ioos:station:wmo:42048:1,2009-01-26T09:30:00Z,27.9396,-96.8429,-2.0,15.85,11111222 
TABS,ioos:station:wmo:42048:1,2009-01-26T10:00:00Z,27.9396,-96.8429,-2.0,15.85,11111222 
TABS,ioos:station:wmo:42048:1,2009-01-26T10:30:00Z,27.9396,-96.8429,-2.0,15.84,11111222 
TABS,ioos:station:wmo:42048:1,2009-01-26T11:00:00Z,27.9396,-96.8429,-2.0,15.82,11111222 
TABS,ioos:station:wmo:42048:1,2009-01-26T11:30:00Z,27.9396,-96.8429,-2.0,15.79,11111222 
TABS,ioos:station:wmo:42048:1,2009-01-26T12:00:00Z,27.9396,-96.8429,-2.0,15.78,11111222 
TABS,ioos:station:wmo:42048:1,2009-01-26T12:30:00Z,27.9396,-96.8429,-2.0,15.79,11111222 
TABS,ioos:station:wmo:42048:1,2009-01-26T13:00:00Z,27.9396,-96.8429,-2.0,15.79,11111222 
TABS,ioos:station:wmo:42048:1,2009-01-26T13:30:00Z,27.9396,-96.8429,-2.0,15.79,11111222 
TABS,ioos:station:wmo:42048:1,2009-01-26T14:00:00Z,27.9396,-96.8429,-2.0,15.79,11111222 
TABS,ioos:station:wmo:42048:1,2009-01-26T14:30:00Z,27.9396,-96.8429,-2.0,15.8,11111222 
TABS,ioos:station:wmo:42048:1,2009-01-26T15:00:00Z,27.9396,-96.8429,-2.0,15.82,11111222 
TABS,ioos:station:wmo:42048:1,2009-01-26T15:30:00Z,27.9396,-96.8429,-2.0,15.87,11111222 
TABS,ioos:station:wmo:42048:1,2009-01-26T16:00:00Z,27.9396,-96.8429,-2.0,15.9,11111222 
TABS,ioos:station:wmo:42048:1,2009-01-26T16:30:00Z,27.9396,-96.8429,-2.0,15.98,11111222 
TABS,ioos:station:wmo:42048:1,2009-01-26T17:00:00Z,27.9396,-96.8429,-2.0,16.06,11111222 
TABS,ioos:station:wmo:42048:1,2009-01-26T17:30:00Z,27.9396,-96.8429,-2.0,16.12,11111222 
TABS,ioos:station:wmo:42048:1,2009-01-26T18:00:00Z,27.9396,-96.8429,-2.0,16.18,11111222 
TABS,ioos:station:wmo:42048:1,2009-01-26T18:30:00Z,27.9396,-96.8429,-2.0,16.27,11111222 
TABS,ioos:station:wmo:42048:1,2009-01-26T19:00:00Z,27.9396,-96.8429,-2.0,16.33,11111222 
TABS,ioos:station:wmo:42048:1,2009-01-26T19:30:00Z,27.9396,-96.8429,-2.0,16.35,11111222 
TABS,ioos:station:wmo:42048:1,2009-01-26T20:00:00Z,27.9396,-96.8429,-2.0,16.37,11111222 
TABS,ioos:station:wmo:42048:1,2009-01-26T20:30:00Z,27.9396,-96.8429,-2.0,16.41,11111222 
TABS,ioos:station:wmo:42048:1,2009-01-26T21:00:00Z,27.9396,-96.8429,-2.0,16.42,11111222 
TABS,ioos:station:wmo:42048:1,2009-01-26T21:30:00Z,27.9396,-96.8429,-2.0,16.49,11111222 
TABS,ioos:station:wmo:42048:1,2009-01-26T22:00:00Z,27.9396,-96.8429,-2.0,16.48,11111222 
TABS,ioos:station:wmo:42048:1,2009-01-26T22:30:00Z,27.9396,-96.8429,-2.0,16.48,11111222 
TABS,ioos:station:wmo:42048:1,2009-01-26T23:00:00Z,27.9396,-96.8429,-2.0,16.49,11111222 
TABS,ioos:station:wmo:42048:1,2009-01-26T23:30:00Z,27.9396,-96.8429,-2.0,16.43,11111222 
TABS,ioos:station:wmo:42048:1,2009-01-27T00:00:00Z,27.9396,-96.8429,-2.0,16.42,11111222 
TABS,ioos:station:wmo:42048:1,2009-01-27T00:30:00Z,27.9396,-96.8429,-2.0,16.37,11111222 
TABS,ioos:station:wmo:42048:1,2009-01-27T01:00:00Z,27.9396,-96.8429,-2.0,16.35,11111222 
TABS,ioos:station:wmo:42048:1,2009-01-27T01:30:00Z,27.9396,-96.8429,-2.0,16.32,11111222 
TABS,ioos:station:wmo:42048:1,2009-01-27T02:00:00Z,27.9396,-96.8429,-2.0,16.28,11111222 
TABS,ioos:station:wmo:42048:1,2009-01-27T02:30:00Z,27.9396,-96.8429,-2.0,16.23,11111222 
TABS,ioos:station:wmo:42048:1,2009-01-27T03:00:00Z,27.9396,-96.8429,-2.0,16.23,11111222 
TABS,ioos:station:wmo:42048:1,2009-01-27T03:30:00Z,27.9396,-96.8429,-2.0,16.18,11111222 
TABS,ioos:station:wmo:42048:1,2009-01-27T04:00:00Z,27.9396,-96.8429,-2.0,16.16,11111222 
TABS,ioos:station:wmo:42048:1,2009-01-27T04:30:00Z,27.9396,-96.8429,-2.0,16.11,11111222 
TABS,ioos:station:wmo:42048:1,2009-01-27T05:00:00Z,27.9396,-96.8429,-2.0,16.09,11111222 
TABS,ioos:station:wmo:42048:1,2009-01-27T05:30:00Z,27.9396,-96.8429,-2.0,16.09,11111222 
TABS,ioos:station:wmo:42048:1,2009-01-27T06:00:00Z,27.9396,-96.8429,-2.0,16.08,11111222 
TABS,ioos:station:wmo:42048:1,2009-01-27T06:30:00Z,27.9396,-96.8429,-2.0,16.07,11111222 
TABS,ioos:station:wmo:42048:1,2009-01-27T07:00:00Z,27.9396,-96.8429,-2.0,16.07,11111222 
TABS,ioos:station:wmo:42048:1,2009-01-27T07:30:00Z,27.9396,-96.8429,-2.0,16.07,11111222 
TABS,ioos:station:wmo:42048:1,2009-01-27T08:00:00Z,27.9396,-96.8429,-2.0,16.07,11111222 
TABS,ioos:station:wmo:42048:1,2009-01-27T08:30:00Z,27.9396,-96.8429,-2.0,16.07,11111222 
TABS,ioos:station:wmo:42048:1,2009-01-27T09:00:00Z,27.9396,-96.8429,-2.0,16.07,11111222 
TABS,ioos:station:wmo:42048:1,2009-01-27T09:30:00Z,27.9396,-96.8429,-2.0,16.07,11111222 
TABS,ioos:station:wmo:42048:1,2009-01-27T10:00:00Z,27.9396,-96.8429,-2.0,16.07,11111222 
TABS,ioos:station:wmo:42048:1,2009-01-27T10:30:00Z,27.9396,-96.8429,-2.0,16.07,11111222 
TABS,ioos:station:wmo:42048:1,2009-01-27T11:00:00Z,27.9396,-96.8429,-2.0,16.07,11111222 
TABS,ioos:station:wmo:42048:1,2009-01-27T11:30:00Z,27.9396,-96.8429,-2.0,16.07,11111222 
TABS,ioos:station:wmo:42048:1,2009-01-27T12:00:00Z,27.9396,-96.8429,-2.0,16.07,11111222 
TABS,ioos:station:wmo:42048:1,2009-01-27T12:30:00Z,27.9396,-96.8429,-2.0,16.07,11111222 
TABS,ioos:station:wmo:42048:1,2009-01-27T13:00:00Z,27.9396,-96.8429,-2.0,16.07,11111222 
TABS,ioos:station:wmo:42048:1,2009-01-27T13:30:00Z,27.9396,-96.8429,-2.0,16.07,11111222 
TABS,ioos:station:wmo:42048:1,2009-01-27T14:00:00Z,27.9396,-96.8429,-2.0,16.07,11111222 
TABS,ioos:station:wmo:42048:1,2009-01-27T14:30:00Z,27.9396,-96.8429,-2.0,16.08,11111222 
TABS,ioos:station:wmo:42048:1,2009-01-27T15:00:00Z,27.9396,-96.8429,-2.0,16.09,11111222 
TABS,ioos:station:wmo:42048:1,2009-01-27T15:30:00Z,27.9396,-96.8429,-2.0,16.1,11111222 
TABS,ioos:station:wmo:42048:1,2009-01-27T16:00:00Z,27.9396,-96.8429,-2.0,16.12,11111222 
TABS,ioos:station:wmo:42048:1,2009-01-27T16:30:00Z,27.9396,-96.8429,-2.0,16.17,11111222 
TABS,ioos:station:wmo:42048:1,2009-01-27T17:00:00Z,27.9396,-96.8429,-2.0,16.22,11111222 
TABS,ioos:station:wmo:42048:1,2009-01-27T17:30:00Z,27.9396,-96.8429,-2.0,16.27,11111222 
TABS,ioos:station:wmo:42048:1,2009-01-27T18:00:00Z,27.9396,-96.8429,-2.0,16.33,11111222 
TABS,ioos:station:wmo:42048:1,2009-01-27T18:30:00Z,27.9396,-96.8429,-2.0,16.4,11111222 
TABS,ioos:station:wmo:42048:1,2009-01-27T19:00:00Z,27.9396,-96.8429,-2.0,16.43,11111222 
TABS,ioos:station:wmo:42048:1,2009-01-27T19:30:00Z,27.9396,-96.8429,-2.0,16.45,11111222 
TABS,ioos:station:wmo:42048:1,2009-01-27T20:00:00Z,27.9396,-96.8429,-2.0,16.5,11111222 
TABS,ioos:station:wmo:42048:1,2009-01-27T20:30:00Z,27.9396,-96.8429,-2.0,16.54,11111222 
TABS,ioos:station:wmo:42048:1,2009-01-27T21:00:00Z,27.9396,-96.8429,-2.0,16.57,11111222 
TABS,ioos:station:wmo:42048:1,2009-01-27T21:30:00Z,27.9396,-96.8429,-2.0,16.59,11111222 
TABS,ioos:station:wmo:42048:1,2009-01-27T22:00:00Z,27.9396,-96.8429,-2.0,16.58,11111222 
TABS,ioos:station:wmo:42048:1,2009-01-27T22:30:00Z,27.9396,-96.8429,-2.0,16.56,11111222 
TABS,ioos:station:wmo:42048:1,2009-01-27T23:00:00Z,27.9396,-96.8429,-2.0,16.54,11111222 
TABS,ioos:station:wmo:42048:1,2009-01-27T23:30:00Z,27.9396,-96.8429,-2.0,16.52,11111222 
TABS,ioos:station:wmo:42048:1,2009-01-28T00:00:00Z,27.9396,-96.8429,-2.0,16.51,11111222 
TABS,ioos:station:wmo:42048:1,2009-01-28T00:30:00Z,27.9396,-96.8429,-2.0,16.5,11111222 
TABS,ioos:station:wmo:42048:1,2009-01-28T01:00:00Z,27.9396,-96.8429,-2.0,16.49,11111222 
TABS,ioos:station:wmo:42048:1,2009-01-28T01:30:00Z,27.9396,-96.8429,-2.0,16.49,11111222 
TABS,ioos:station:wmo:42048:1,2009-01-28T02:00:00Z,27.9396,-96.8429,-2.0,16.48,11111222 
TABS,ioos:station:wmo:42048:1,2009-01-28T02:30:00Z,27.9396,-96.8429,-2.0,16.48,11111222 
TABS,ioos:station:wmo:42048:1,2009-01-28T03:00:00Z,27.9396,-96.8429,-2.0,16.48,11111222 
TABS,ioos:station:wmo:42048:1,2009-01-28T03:30:00Z,27.9396,-96.8429,-2.0,16.47,11111222 
TABS,ioos:station:wmo:42048:1,2009-01-28T04:00:00Z,27.9396,-96.8429,-2.0,16.46,11111222 
TABS,ioos:station:wmo:42048:1,2009-01-28T04:30:00Z,27.9396,-96.8429,-2.0,16.43,11111222 
TABS,ioos:station:wmo:42048:1,2009-01-28T05:00:00Z,27.9396,-96.8429,-2.0,16.38,11111222 
TABS,ioos:station:wmo:42048:1,2009-01-28T05:30:00Z,27.9396,-96.8429,-2.0,16.33,11111222 
TABS,ioos:station:wmo:42048:1,2009-01-28T06:00:00Z,27.9396,-96.8429,-2.0,16.27,11111222 
TABS,ioos:station:wmo:42048:1,2009-01-28T06:30:00Z,27.9396,-96.8429,-2.0,16.18,11111222 
TABS,ioos:station:wmo:42048:1,2009-01-28T07:00:00Z,27.9396,-96.8429,-2.0,16.11,11111222 
TABS,ioos:station:wmo:42048:1,2009-01-28T07:30:00Z,27.9396,-96.8429,-2.0,16.09,11111222 
TABS,ioos:station:wmo:42048:1,2009-01-28T08:00:00Z,27.9396,-96.8429,-2.0,16.07,11111222 
TABS,ioos:station:wmo:42048:1,2009-01-28T08:30:00Z,27.9396,-96.8429,-2.0,16.06,11111222 
TABS,ioos:station:wmo:42048:1,2009-01-28T09:00:00Z,27.9396,-96.8429,-2.0,16.04,11111222 
TABS,ioos:station:wmo:42048:1,2009-01-28T09:30:00Z,27.9396,-96.8429,-2.0,16.03,11111222 
TABS,ioos:station:wmo:42048:1,2009-01-28T10:00:00Z,27.9396,-96.8429,-2.0,16.01,11111222 
TABS,ioos:station:wmo:42048:1,2009-01-28T10:30:00Z,27.9396,-96.8429,-2.0,15.99,11111222 
TABS,ioos:station:wmo:42048:1,2009-01-28T11:00:00Z,27.9396,-96.8429,-2.0,15.99,11111222 
TABS,ioos:station:wmo:42048:1,2009-01-28T11:30:00Z,27.9396,-96.8429,-2.0,16.0,11111222 
TABS,ioos:station:wmo:42048:1,2009-01-28T12:00:00Z,27.9396,-96.8429,-2.0,15.97,11111222 
TABS,ioos:station:wmo:42048:1,2009-01-28T12:30:00Z,27.9396,-96.8429,-2.0,15.96,11111222 
TABS,ioos:station:wmo:42048:1,2009-01-28T13:00:00Z,27.9396,-96.8429,-2.0,15.93,11111222 
TABS,ioos:station:wmo:42048:1,2009-01-28T13:30:00Z,27.9396,-96.8429,-2.0,15.9,11111222 
TABS,ioos:station:wmo:42048:1,2009-01-28T14:00:00Z,27.9396,-96.8429,-2.0,15.89,11111222 
TABS,ioos:station:wmo:42048:1,2009-01-28T14:30:00Z,27.9396,-96.8429,-2.0,15.88,11111222 
TABS,ioos:station:wmo:42048:1,2009-01-28T15:00:00Z,27.9396,-96.8429,-2.0,15.84,11111222 
TABS,ioos:station:wmo:42048:1,2009-01-28T15:30:00Z,27.9396,-96.8429,-2.0,15.84,11111222 
TABS,ioos:station:wmo:42048:1,2009-01-28T16:00:00Z,27.9396,-96.8429,-2.0,15.82,11111222 
TABS,ioos:station:wmo:42048:1,2009-01-28T16:30:00Z,27.9396,-96.8429,-2.0,15.83,11111222 
TABS,ioos:station:wmo:42048:1,2009-01-28T17:00:00Z,27.9396,-96.8429,-2.0,15.83,11111222 
TABS,ioos:station:wmo:42048:1,2009-01-28T17:30:00Z,27.9396,-96.8429,-2.0,15.83,11111222 
TABS,ioos:station:wmo:42048:1,2009-01-28T18:00:00Z,27.9396,-96.8429,-2.0,15.84,11111222 
TABS,ioos:station:wmo:42048:1,2009-01-28T18:30:00Z,27.9396,-96.8429,-2.0,15.88,11111222 
TABS,ioos:station:wmo:42048:1,2009-01-28T19:00:00Z,27.9396,-96.8429,-2.0,15.91,11111222 
TABS,ioos:station:wmo:42048:1,2009-01-28T19:30:00Z,27.9396,-96.8429,-2.0,15.98,11111222 
TABS,ioos:station:wmo:42048:1,2009-01-28T20:00:00Z,27.9396,-96.8429,-2.0,15.99,11111222 
TABS,ioos:station:wmo:42048:1,2009-01-28T20:30:00Z,27.9396,-96.8429,-2.0,16.05,11111222 
TABS,ioos:station:wmo:42048:1,2009-01-28T21:00:00Z,27.9396,-96.8429,-2.0,16.1,11111222 
TABS,ioos:station:wmo:42048:1,2009-01-28T21:30:00Z,27.9396,-96.8429,-2.0,16.14,11111222 
TABS,ioos:station:wmo:42048:1,2009-01-28T22:00:00Z,27.9396,-96.8429,-2.0,16.12,11111222 
TABS,ioos:station:wmo:42048:1,2009-01-28T22:30:00Z,27.9396,-96.8429,-2.0,16.1,11111222 
TABS,ioos:station:wmo:42048:1,2009-01-28T23:00:00Z,27.9396,-96.8429,-2.0,16.07,11111222 
TABS,ioos:station:wmo:42048:1,2009-01-28T23:30:00Z,27.9396,-96.8429,-2.0,16.06,11111222 
TABS,ioos:station:wmo:42048:1,2009-01-29T00:00:00Z,27.9396,-96.8429,-2.0,16.02,11111222 
TABS,ioos:station:wmo:42048:1,2009-01-29T00:30:00Z,27.9396,-96.8429,-2.0,16.0,11111222 
TABS,ioos:station:wmo:42048:1,2009-01-29T01:00:00Z,27.9396,-96.8429,-2.0,15.98,11111222 
TABS,ioos:station:wmo:42048:1,2009-01-29T01:30:00Z,27.9396,-96.8429,-2.0,15.96,11111222 
TABS,ioos:station:wmo:42048:1,2009-01-29T02:00:00Z,27.9396,-96.8429,-2.0,15.93,11111222 
TABS,ioos:station:wmo:42048:1,2009-01-29T02:30:00Z,27.9396,-96.8429,-2.0,15.9,11111222 
TABS,ioos:station:wmo:42048:1,2009-01-29T03:00:00Z,27.9396,-96.8429,-2.0,15.88,11111222 
TABS,ioos:station:wmo:42048:1,2009-01-29T03:30:00Z,27.9396,-96.8429,-2.0,15.88,11111222 
TABS,ioos:station:wmo:42048:1,2009-01-29T04:00:00Z,27.9396,-96.8429,-2.0,15.87,11111222 